Presure
193 195 157 191 182 202 201 214 273 245 226 228 206 213 221 208 201 203 198 204 203 205 205 211 206 207 212 216 203 200 201 205 202 202 206 216 204 197 196 199 195 201 203
192 193 188 178 180 194 192 206 262 233 225 224 202 217 200 202 205 215 260 254 244 236 205 203 195 203 200 198 193 206 205 198 212 216 200 191 195 183 187 193 203 203 198
195 197 192 200 182 211 196 198 207 247 219 220 192 212 195 203 207 225 250 238 227 218 219 224 231 208 206 227 235 201 236 207 207 190 188 191 194 199 206 207 198 190 190
187 189 191 200 211 195 196 212 210 213 193 211 197 210 200 203 215 210 239 216 221 211 214 186 208 211 210 211 211 204 196 204 209 211 211 208 207 211 210 204 180 193 186
197 197 207 214 204 224 209 195 207 205 205 218 202 194 200 194 209 215 224 174 217 208 213 206 198 214 202 173 202 204 204 206 207 206 194 190 198 204 200 193 189 198 180
209 202 215 170 169 163 210 191 195 214 219 211 202 188 190 196 191 211 210 214 203 205 220 211 211 154 210 197 190 222 203 220 226 210 207 193 189 187 191 185 189 175 177
202 192 196 180 181 189 191 186 218 216 218 205 191 202 202 201 186 214 203 199 212 192 199 184 195 204 212 210 187 193 202 203 197 193 190 198 194 183 190 178 179 179 180
199 193 202 187 182 183 197 188 204 213 218 209 199 202 195 200 183 196 195 205 198 199 180 206 196 189 200 200 201 186 189 196 199 191 192 188 180 179 177 186 192 180 174
194 186 202 189 200 189 197 198 192 180 203 204 209 187 194 205 196 185 190 193 201 191 191 194 196 192 184 188 193 195 191 185 177 179 182 184 190 194 196 183 184 190 198
200 191 196 188 206 191 198 191 200 188 195 190 201 204 191 195 196 194 182 186 189 189 165 164 173 174 191 189 185 186 187 187 187 193 195 187 182 177 179 173 197 200 193
221 207 201 191 188 226 191 186 201 206 194 202 202 202 197 197 205 196 196 180 184 180 181 183 175 168 171 174 182 184 190 189 185 189 190 191 196 200 172 203 193 180 185
231 219 214 208 202 212 227 214 209 203 193 209 199 201 201 196 196 200 198 196 190 186 192 186 187 192 188 182 175 189 186 182 180 185 182 185 185 182 181 180 181 193 190
219 221 223 238 236 238 235 207 212 211 205 233 242 236 204 204 196 206 199 200 192 198 193 185 192 189 185 187 185 187 192 193 194 197 192 183 192 192 190 181 186 201 188
214 219 229 239 224 220 229 197 201 224 250 235 232 218 230 216 201 199 206 195 198 204 199 196 199 193 192 183 189 191 191 193 194 193 181 202 197 199 201 185 185 197 183
222 222 228 238 218 232 251 227 277 264 242 250 238 235 230 204 211 216 202 195 200 204 204 199 205 207 203 190 187 194 193 181 187 207 193 219 197 183 196 200 193 203 221
236 232 233 238 217 236 246 236 267 262 260 248 240 233 229 227 221 222 217 205 201 198 199 206 205 206 203 197 203 206 204 205 218 226 199 217 210 225 211 224 213 182 212
230 227 226 227 232 229 238 232 260 252 254 248 240 232 235 236 215 211 233 225 211 194 201 191 195 189 207 206 195 204 212 211 197 213 203 223 223 189 222 209 231 229 223
229 228 231 226 233 233 241 223 262 248 247 255 243 238 230 229 223 223 213 210 224 228 225 205 215 207 212 211 206 203 216 212 226 215 200 212 211 221 215 221 219 219 214
249 242 241 242 245 227 240 228 244 260 243 241 242 247 241 235 232 226 227 216 215 225 222 214 217 214 220 229 226 221 224 226 218 214 211 223 212 215 215 205 213 214 226
254 255 257 256 246 244 241 227 229 254 245 243 244 239 241 232 238 233 237 223 229 224 234 225 216 225 233 225 208 196 216 223 217 217 218 217 216 214 212 230 226 222 223
278 274 274 269 264 260 249 250 255 246 251 256 241 241 239 241 246 228 229 230 237 231 228 230 231 215 213 209 223 230 233 227 209 217 219 216 227 228 236 227 226 239 238
306 274 268 272 263 264 262 255 250 244 252 260 255 242 241 247 237 248 241 232 225 229 239 229 225 226 228 231 223 222 223 226 225 225 232 237 231 222 228 235 249 244 238
276 290 302 291 274 265 265 267 267 258 267 250 264 255 252 248 242 240 244 246 241 244 241 233 229 229 229 230 229 229 227 229 235 238 233 242 249 250 243 245 232 248 256
299 280 275 283 296 306 292 281 271 269 277 258 275 254 272 263 251 251 252 242 243 243 246 242 243 245 244 243 243 247 245 243 246 247 240 242 248 255 261 256 239 240 258
328 318 319 319 310 284 279 294 309 310 290 279 282 265 274 270 258 268 278 258 257 262 262 255 255 256 235 258 253 251 253 245 233 239 232 250 241 240 259 265 254 269 263
405 400 394 367 324 328 327 317 313 294 284 295 304 315 302 291 284 282 277 276 270 246 243 243 256 256 257 256 255 261 267 267 267 267 269 265 256 263 292 317 322 315 293
Wind_Speed
47 43 41 50 47 32 26 18 24 27 31 32 32 25 25 31 33 36 38 38 39 40 42 43 46 49 54 55 57 60 60 58 61 62 61 59 58 55 58 60 57 59 51
46 49 52 44 43 38 32 15 23 28 29 33 30 26 32 35 34 35 23 24 26 33 43 46 48 50 54 56 57 56 58 61 61 63 56 56 57 61 61 58 61 55 48
53 53 52 45 48 41 40 28 17 28 30 33 38 27 33 36 33 27 30 27 33 37 38 35 33 47 51 46 46 55 56 58 59 57 60 61 62 61 62 59 56 51 53
55 54 53 46 41 47 45 36 26 25 37 36 35 30 34 36 33 33 30 32 31 37 40 41 46 44 48 48 46 49 56 51 50 55 59 61 61 59 58 54 58 54 52
58 49 29 31 42 46 52 42 30 32 33 40 36 35 35 38 35 33 32 48 37 39 41 41 42 45 46 51 49 50 51 53 54 55 54 55 54 52 53 55 55 52 58
53 44 42 50 39 40 44 46 39 38 35 41 40 43 42 40 42 36 36 39 40 40 42 43 47 47 50 50 51 53 53 51 53 52 52 52 54 56 56 58 57 62 62
53 57 54 60 56 53 50 46 49 43 39 43 43 43 43 42 45 38 41 43 42 47 46 50 47 45 46 49 52 51 50 49 50 51 54 53 55 59 58 62 65 65 67
65 61 63 63 61 58 56 41 50 48 45 47 48 49 46 47 50 44 46 46 47 47 50 48 51 50 49 49 51 55 55 55 53 55 57 59 62 64 65 68 67 67 69
74 63 74 68 73 70 71 67 48 42 47 48 52 53 49 53 52 53 51 49 50 53 53 53 53 55 56 54 55 55 57 59 62 62 63 65 69 71 70 69 70 72 74
80 77 77 63 77 74 83 67 71 49 55 54 55 60 59 56 58 57 59 57 56 57 55 59 60 59 61 62 62 62 63 64 65 69 71 68 67 70 73 70 79 77 75
79 85 88 78 68 74 65 60 79 84 62 63 63 64 66 65 65 64 63 65 67 67 66 66 64 62 64 67 68 68 70 70 69 74 74 75 78 79 67 81 77 75 79
77 75 82 88 86 86 77 94 93 84 65 84 74 76 71 70 67 68 68 68 70 71 71 72 72 72 73 75 72 75 74 73 74 76 76 77 78 76 76 76 77 85 83
76 78 80 79 79 74 72 93 92 91 81 81 79 82 77 77 74 77 73 74 75 76 77 78 77 77 80 81 79 79 79 80 79 81 84 81 85 86 87 82 85 91 85
73 75 75 71 75 87 79 64 72 86 87 87 88 85 85 84 80 79 81 79 80 82 82 80 82 84 83 75 82 82 82 84 84 85 81 90 89 90 91 85 87 97 87
80 76 77 74 83 77 68 88 62 76 81 83 88 88 88 84 85 90 87 85 84 84 86 84 86 90 90 85 85 87 89 80 84 93 89 96 91 86 94 96 95 96 102
82 80 79 76 82 74 71 73 63 69 79 82 85 89 88 90 93 95 95 92 86 83 85 92 90 91 91 88 92 95 93 92 96 96 90 97 93 98 96 100 95 92 95
83 80 79 78 78 76 77 75 70 72 76 85 86 88 93 93 93 88 90 95 98 85 94 82 83 78 98 98 83 94 101 92 84 105 90 110 107 89 106 92 113 113 112
84 84 84 84 84 82 82 81 75 80 79 84 90 94 96 99 98 99 97 96 100 102 104 97 105 102 105 104 103 96 97 104 109 107 92 109 105 109 108 114 112 114 111
93 94 93 92 91 85 86 86 82 83 86 85 88 95 97 100 104 105 103 101 102 104 105 103 106 103 106 110 109 109 110 108 111 111 105 117 110 113 116 100 112 119 128
89 91 93 94 93 93 89 89 89 88 90 92 94 94 96 100 102 105 106 105 108 106 109 110 107 113 112 110 94 85 110 115 117 120 121 120 119 117 112 131 129 123 126
89 89 91 94 94 95 95 95 94 95 97 99 98 99 100 102 106 106 106 108 111 111 111 113 116 104 100 96 112 117 119 120 104 119 123 117 130 131 137 131 133 139 137
79 91 90 92 94 95 97 96 98 99 100 101 106 103 104 108 107 111 114 114 109 114 118 119 117 118 119 121 115 115 119 124 125 126 134 137 132 124 134 140 144 141 132
79 81 86 95 99 98 100 100 102 104 105 106 108 110 114 114 113 112 115 118 119 123 121 122 119 121 122 123 122 125 123 128 134 138 135 143 146 145 134 137 126 144 154
84 87 88 90 93 98 107 107 104 106 107 108 112 112 113 117 116 120 123 119 121 122 127 125 127 129 129 131 131 136 138 135 137 135 127 135 143 148 149 146 127 128 150
83 88 90 93 96 97 98 101 104 110 113 111 112 113 117 121 119 121 122 126 126 131 135 134 133 133 115 138 135 133 136 129 118 124 116 132 127 126 148 151 143 160 143
76 78 81 89 96 97 100 103 105 106 107 109 110 114 118 121 121 122 123 125 126 111 109 110 127 128 130 130 131 140 142 142 143 141 144 144 137 142 148 138 136 136 136
Wind_Direction
209 204 253 227 233 240 249 282 207 213 220 221 221 224 229 228 229 233 238 236 233 230 229 228 230 234 237 239 247 250 252 254 256 258 262 263 268 274 275 276 278 282 274
209 217 224 237 233 238 229 255 245 236 226 226 219 231 227 233 235 242 215 201 207 218 230 232 236 234 238 240 245 246 248 252 253 257 264 268 269 269 273 278 278 278 280
211 215 223 227 239 239 230 227 244 239 239 230 226 228 234 241 239 243 213 209 214 222 224 222 220 235 238 238 241 249 242 252 256 260 261 263 266 271 274 272 274 273 273
229 230 229 234 235 238 228 248 243 251 250 234 229 230 235 244 245 240 226 233 215 230 229 245 236 237 240 242 244 248 252 253 254 253 257 260 264 268 269 269 273 272 271
219 226 226 257 257 250 246 234 241 242 240 244 232 230 237 240 242 240 234 244 224 236 234 238 244 237 247 258 254 253 254 255 257 258 264 265 269 270 268 267 269 271 273
209 208 176 250 247 248 255 237 239 252 250 243 237 233 236 236 243 237 239 239 242 243 241 244 246 261 248 253 257 253 257 257 255 258 259 263 265 267 267 271 270 271 274
212 221 206 232 245 246 249 239 252 244 242 237 234 237 237 239 237 233 239 244 243 245 249 244 249 251 254 251 255 259 260 260 261 261 264 264 264 268 268 268 271 274 277
215 219 213 230 243 250 245 243 249 242 240 238 234 237 237 237 236 241 241 238 245 246 251 249 251 253 256 257 256 257 259 259 258 259 260 261 264 265 267 269 272 274 275
219 235 221 236 229 244 246 247 244 233 243 240 241 238 237 239 236 237 241 242 241 246 249 250 251 252 251 253 256 256 256 256 260 261 263 264 266 269 272 271 274 279 280
222 228 227 237 233 239 239 245 247 240 240 241 240 241 240 238 237 236 241 240 245 248 261 264 259 259 257 258 257 259 260 261 262 265 265 267 269 270 272 277 276 276 277
225 227 229 238 244 239 245 249 246 247 242 244 243 240 240 241 239 237 237 248 244 248 249 249 257 264 266 264 261 262 261 263 264 266 268 270 271 270 276 273 277 281 283
233 234 233 235 239 240 242 240 243 247 245 250 245 245 241 242 242 241 241 241 244 247 246 250 251 251 253 258 269 259 261 265 267 267 269 268 270 274 276 277 279 279 281
231 234 237 241 243 243 241 244 244 248 251 245 237 238 241 240 241 241 242 243 245 244 247 252 249 252 256 257 260 260 261 263 264 265 268 272 272 273 274 276 278 278 281
237 240 243 246 235 238 240 245 247 247 237 242 247 246 238 239 243 244 244 245 246 247 249 251 252 254 256 261 261 263 263 263 265 266 272 270 272 274 274 276 279 282 280
239 240 244 247 236 242 254 245 243 230 238 239 242 243 242 242 243 242 246 249 248 249 251 251 253 254 255 261 264 263 265 271 270 266 271 267 270 276 274 274 275 280 279
242 242 245 246 239 248 254 248 254 243 237 235 238 241 241 243 244 245 244 250 253 254 254 254 257 258 260 262 265 266 268 269 272 273 272 273 273 274 276 280 277 277 282
241 242 244 246 248 247 254 249 255 246 241 237 237 239 242 242 246 246 247 247 249 259 257 263 264 266 264 266 270 270 271 270 275 276 276 279 282 268 285 282 285 286 288
243 245 246 247 250 249 254 247 254 247 246 240 238 239 243 244 247 248 250 251 253 252 253 260 258 262 262 264 267 270 267 270 267 273 277 281 283 278 285 285 288 289 288
242 244 246 249 250 246 250 249 254 247 244 245 242 242 242 244 247 250 251 253 255 256 257 259 259 262 263 264 264 266 268 268 271 274 278 276 280 282 284 285 285 288 286
244 245 246 247 247 247 248 248 250 249 246 245 244 244 244 246 246 249 249 253 253 256 255 258 262 262 262 263 268 270 269 267 270 272 274 277 279 282 285 281 282 286 286
249 249 249 249 249 249 249 250 251 249 248 247 247 246 247 247 247 252 252 254 253 256 257 256 257 265 266 269 267 264 264 267 274 276 278 279 276 278 277 282 284 284 286
250 250 250 250 249 249 249 250 249 251 250 248 247 250 250 249 251 250 250 254 258 257 255 261 264 265 265 264 268 269 270 270 272 274 273 270 274 281 281 282 281 283 285
252 252 252 251 251 251 250 250 251 251 252 251 249 249 248 250 252 253 253 253 255 255 258 261 263 264 265 265 268 269 272 272 272 273 275 275 274 277 279 282 282 286 285
254 254 253 252 252 252 253 253 253 252 253 253 252 254 252 251 253 253 255 257 258 259 259 260 261 261 263 265 267 267 268 271 273 274 275 276 278 281 280 282 282 284 286
263 259 257 255 254 255 256 254 253 254 254 254 254 254 255 255 256 255 256 257 258 258 259 261 264 265 266 266 267 269 270 273 273 275 276 276 277 279 282 282 284 284 286
275 270 265 261 257 256 255 255 254 256 257 256 256 256 257 257 257 258 258 259 259 264 265 265 265 266 266 268 270 271 271 273 274 275 274 275 278 280 281 284 287 287 287